Flag for Sweden Weather past 2 weeks in Malmö, Sweden

59 °F

Scattered clouds.

Feels Like: 58 °F
Forecast: 46 / 61 °F
Wind: 6 mph from West

Location: Malmo / Sturup

Current Time: Oct 4, 2015 at 5:33:16 PM

Latest Report: Oct 4, 2015 at 4:50 PM

Visibility: N/A

Pressure: 29.92 "Hg

Humidity: 82%

Dew point: 54 °F

Location of MalmöLocation

Historic Weather in Malmö — Graph


Malmö temperature yesterday

Maximum temperature yesterday: 59 °F (at 2:20 PM)
Minimum temperature yesterday: 43 °F (at 1:50 AM)
Average temperature yesterday: 52 °F

Past Weeks' High & Low Weather Summary

High63 °F (Sep 23, 2:20 PM)100% (Sep 20, 11:50 PM)30.74 "Hg (Sep 20, 11:50 PM)
Low36 °F (Sep 30, 4:20 AM)45% (Sep 27, 2:50 PM)29.62 "Hg (Sep 22, 5:20 PM)
Average53 °F85%30.17 "Hg
* Reported Sep 19 4:20 PM — Oct 4 4:20 PM, Malmö, Weather by CustomWeather, © 2015

Note: Actual official high and low records may vary slightly from our data, if they occured in-between our weather recording intervals... More about our weather records


Malmö weather history for previous 24 hours

Time TempWeatherWind HumidityBarometerVisibility
4:20 PM
Sun, Oct 4
57 °FScattered clouds.7 mph82%29.92 "HgN/A
3:50 PM57 °FFog.5 mph88%29.92 "Hg6 mi
3:20 PM59 °FFog.5 mph82%29.92 "Hg6 mi
2:50 PM59 °FFog.6 mph88%29.92 "Hg6 mi
2:20 PM57 °FPartly sunny.6 mph94%29.92 "HgN/A
1:50 PM59 °FPartly sunny.7 mph88%29.92 "HgN/A
1:20 PM59 °FPartly sunny.5 mph88%29.92 "HgN/A
12:50 PM59 °FFog.7 mph88%29.92 "Hg6 mi
12:20 PM59 °FFog.3 mph88%29.92 "Hg6 mi
11:50 AM59 °FPartly sunny.5 mph88%29.92 "HgN/A
11:20 AM59 °FFog.2 mph94%29.92 "Hg4 mi
10:50 AM57 °FFog.3 mph100%29.92 "Hg3 mi
10:20 AM55 °FFog.2 mph100%29.92 "Hg3 mi
9:50 AM54 °FFog.5 mph100%29.92 "Hg2 mi
9:20 AM54 °FFog.6 mph100%29.92 "Hg0 mi
8:50 AM52 °FFog.3 mph100%29.92 "Hg0 mi
8:20 AM52 °FFog.5 mph100%29.92 "Hg0 mi
7:50 AM52 °FFog.5 mph100%29.92 "Hg0 mi
7:20 AM50 °FFog.3 mph100%29.89 "Hg0 mi
6:20 AM48 °FFog.6 mph100%29.89 "Hg1 mi
5:50 AM48 °FFog.3 mph100%29.89 "Hg0 mi
5:20 AM46 °FFog.3 mph100%29.92 "Hg0 mi
4:50 AM48 °FFog.3 mph100%29.92 "Hg1 mi
4:20 AM48 °FFog.7 mph100%29.89 "Hg0 mi
3:50 AM48 °FFog.6 mph100%29.92 "Hg1 mi
3:20 AM48 °FLight fog.6 mph100%29.92 "Hg1 mi
2:50 AM48 °FFog.5 mph100%29.92 "Hg1 mi
2:20 AM50 °FFog.6 mph94%29.92 "Hg1 mi
1:50 AM50 °FFog.7 mph100%29.92 "Hg0 mi
1:20 AM52 °FFog.7 mph100%29.95 "Hg0 mi
12:50 AM52 °FFog.8 mph100%29.95 "Hg0 mi
12:20 AM52 °FFog.8 mph100%29.95 "Hg0 mi
11:20 PM
Sat, Oct 3
52 °FFog.8 mph100%29.98 "Hg0 mi
10:50 PM50 °FFog.7 mph100%29.98 "Hg2 mi
10:20 PM52 °FFog.6 mph94%29.98 "Hg2 mi
9:50 PM50 °FFog.7 mph94%29.98 "Hg2 mi
9:20 PM48 °FFog.6 mph100%29.98 "Hg3 mi
8:50 PM48 °FLight fog.5 mph94%29.98 "Hg3 mi
8:20 PM45 °FLight fog.5 mph100%29.98 "Hg1 mi
7:50 PM45 °FClear.3 mph100%29.98 "Hg10 mi
7:20 PM46 °FSunny.2 mph100%29.98 "Hg10 mi
6:50 PM52 °FSunny.3 mph88%30.01 "Hg10 mi
6:20 PM55 °FSunny.3 mph82%30.01 "Hg10 mi
5:50 PM57 °FSunny.3 mph77%30.01 "Hg10 mi
5:20 PM57 °FPassing clouds.5 mph72%30.01 "HgN/A
Weather by CustomWeather, © 2015

See weather overviewHow to use our weather pages